Regional Weather Roundup
Issued by NWS State College, PA

Home | Current Version | Previous Version | Text Only | Print | Product List | Glossary Off
Versions: 1 2 3 4 5 6 7 8 9 10 11 12 13 14 15 16 17 18 19 20 21 22 23 24 25 26 27 28 29 30 31 32 33 34 35 36 37 38 39 40 41 42 43 44 45 46 47 48 49 50

000
ASUS41 KCTP 271810
RWRCTP

REGIONAL WEATHER ROUNDUP
NATIONAL WEATHER SERVICE STATE COLLEGE PA
200 PM EDT TUE JUN 27 2017

Note: "fair" indicates few or no clouds below 12,000 feet with no
significant weather and/or obstructions to visibility.

* = STATION THAT DOES NOT REPORT PRECIPITATION /E.G. RAIN...SNOW...ETC/
    THUNDER OR FOG.

PAZ002>004-007>009-013>016-020>023-029>032-271900-
WESTERN PENNSYLVANIA

CITY           SKY/WX    TMP DP  RH WIND       PRES   REMARKS
ERIE           CLOUDY    63  51  65 W14       30.05R
MEADVILLE      CLOUDY    59  51  75 W8G24     30.07
FRANKLIN*      PTSUNNY   61  48  63 W8        30.07S
NEW CASTLE     CLOUDY    63  50  62 W12       30.08S
BEAVER COUNTY  CLOUDY    66  48  52 NW13G18   30.08S
BUTLER*        PTSUNNY   64  48  55 W7G23     30.07F
PITTSBURGH INT PTSUNNY   67  48  50 SW12G18   30.07S
PITTSBURGH     CLOUDY    64  44  48 W12       30.07S
INDIANA*       CLOUDY    63  46  55 NW16G24   30.08R
LATROBE        PTSUNNY   64  46  52 W14G25    30.08R
WASHINGTON CO* PTSUNNY   66  46  48 NW12G20   30.11S
$$

PAZ004>006-010>012-017>019-024>028-033>037-041-042-045-046-049>053-271900-
CENTRAL PENNSYLVANIA

CITY           SKY/WX    TMP DP  RH WIND       PRES   REMARKS
BRADFORD       CLOUDY    55  50  83 W8        30.02R
DUBOIS         CLOUDY    59  47  64 W13G22    30.04R
CLEARFIELD     CLOUDY    65  45  48 W13G20    30.03S
JOHNSTOWN      PTSUNNY   62  45  53 W13G22    30.06R
ALTOONA        PTSUNNY   67  46  47 W17G24    30.03F
STATE COLLEGE  CLOUDY    66  46  48 W14G21    30.01S
WILLIAMSPORT   MOSUNNY   74  46  36 W23G30    29.95F
SELINSGROVE    PTSUNNY   70  50  49 W6G17     29.98F
FT INDIANTOWN  MOSUNNY   75  52  43 W14       29.97F
CAPITAL CITY   MOSUNNY   77  48  35 W13G21    29.98F
HARRISBURG     MOSUNNY   76  49  38 W13       29.97F
YORK           PTSUNNY   74  53  48 VRB7      29.99F
$$

PAZ038>040-043-044-047-048-054-055-060>062-067>071-271900-
EASTERN PENNSYLVANIA

CITY           SKY/WX    TMP DP  RH WIND       PRES   REMARKS
SCRANTON       PTSUNNY   64  49  57 SW8       29.97S
MOUNT POCONO   LGT RAIN  58  47  66 NW18G29   30.01R
ALLENTOWN      PTSUNNY   76  52  43 W13G21    29.96F
QUAKERTOWN*    PTCLDY    75  50  41 W10G17    29.98F
READING        PTSUNNY   75  51  43 W15       29.97F
LANCASTER      MOSUNNY   77  52  41 W18G26    29.98F
COATESVILLE    CLEAR     73  50  43 VRB7G15   30.00F
POTTSTOWN      MOSUNNY   74  50  42 W8G17     29.99F
BLUE BELL      CLOUDY    73  55  53 W5        29.99F
DOYLESTOWN     MOSUNNY   73  55  53 S9        29.96F
WILLOW GROVE   NOT AVBL
NORTH PHILA    LGT RAIN  72  56  57 NW9       29.98F
PHILADELPHIA   MOSUNNY   77  50  38 W12       29.97F
$$




USA.gov is the U.S. government's official web portal to all federal, state and local government web resources and services.